| time (UTC) | temp F | wind direction | speed knots | gust knots | rain 1hr in | rain 24hr in | rain mn in | humidity % | barometer mb |
| 20260505153244 | 79 | 115 | 1.7 | 1.7 | 0.00 | 0.00 | 0.00 | 42 | 1011.6 |
| 20260505152741 | 79 | 224 | 4.3 | 7.8 | 0.00 | 0.00 | 0.00 | 42 | 1011.4 |
| 20260505152238 | 78 | 74 | 1.7 | 3.5 | 0.00 | 0.00 | 0.00 | 47 | 1011.5 |
| 20260505151737 | 80 | 161 | 1.7 | 1.7 | 0.00 | 0.00 | 0.00 | 42 | 1011.6 |
| 20260505151235 | 79 | 118 | 0.0 | 0.0 | 0.00 | 0.00 | 0.00 | 42 | 1011.5 |
| 20260505150732 | 78 | 180 | 5.2 | 7.0 | 0.00 | 0.00 | 0.00 | 42 | 1011.5 |
| 20260505150230 | 78 | 188 | 0.0 | 0.9 | 0.00 | 0.00 | 0.00 | 43 | 1011.6 |
| 20260505140200 | 74 | 149 | 2.6 | 6.1 | 0.00 | 0.00 | 0.00 | 47 | 1012.0 |
| 20260505130124 | 69 | 210 | 0.9 | 1.7 | 0.00 | 0.00 | 0.00 | 53 | 1012.4 |
| 20260505124613 | 68 | 148 | 0.9 | 0.9 | 0.00 | 0.00 | 0.00 | 56 | 1012.1 |
| 20260505124109 | 67 | 137 | 0.9 | 1.7 | 0.00 | 0.00 | 0.00 | 58 | 1012.2 |
| 20260505123605 | 67 | 183 | 0.0 | 0.9 | 0.00 | 0.00 | 0.00 | 58 | 1012.2 |
| 20260505123102 | 67 | 257 | 0.9 | 1.7 | 0.00 | 0.00 | 0.00 | 58 | 1011.9 |
| 20260505122559 | 67 | 222 | 1.7 | 2.6 | 0.00 | 0.00 | 0.00 | 57 | 1011.9 |
| 20260505122056 | 66 | 126 | 1.7 | 3.5 | 0.00 | 0.00 | 0.00 | 58 | 1011.8 |
| 20260505121552 | 66 | 102 | 2.6 | 2.6 | 0.00 | 0.00 | 0.00 | 61 | 1012.0 |
| 20260505121049 | 66 | 230 | 1.7 | 1.7 | 0.00 | 0.00 | 0.00 | 60 | 1012.2 |
| 20260505120546 | 65 | 217 | 3.5 | 5.2 | 0.00 | 0.00 | 0.00 | 60 | 1011.8 |
| 20260505120041 | 64 | 165 | 3.5 | 3.5 | 0.00 | 0.00 | 0.00 | 62 | 1012.0 |
| 20260505115536 | 64 | 321 | 1.7 | 2.6 | 0.00 | 0.00 | 0.00 | 63 | 1012.0 |
| 20260505115034 | 64 | 139 | 0.9 | 2.6 | 0.00 | 0.00 | 0.00 | 63 | 1011.8 |
| 20260505114531 | 64 | 196 | 2.6 | 5.2 | 0.00 | 0.00 | 0.00 | 64 | 1011.8 |
| 20260505114027 | 63 | 223 | 1.7 | 2.6 | 0.00 | 0.00 | 0.00 | 64 | 1011.8 |
| 20260505113524 | 63 | 154 | 3.5 | 5.2 | 0.00 | 0.00 | 0.00 | 65 | 1011.9 |
| 20260505113020 | 63 | 143 | 0.9 | 1.7 | 0.00 | 0.00 | 0.00 | 66 | 1011.9 |
| 20260505112516 | 63 | 153 | 0.0 | 0.0 | 0.00 | 0.00 | 0.00 | 67 | 1011.6 |
| 20260505112015 | 62 | 113 | 1.7 | 1.7 | 0.00 | 0.00 | 0.00 | 67 | 1011.8 |
| 20260505111514 | 62 | 168 | 0.0 | 0.0 | 0.00 | 0.00 | 0.00 | 68 | 1011.6 |
| 20260505111010 | 61 | 156 | 2.6 | 2.6 | 0.00 | 0.00 | 0.00 | 69 | 1011.7 |
| 20260505110507 | 60 | 130 | 0.0 | 0.0 | 0.00 | 0.00 | 0.00 | 70 | 1011.7 |
| 20260505101939 | 60 | 298 | 3.5 | 5.2 | 0.00 | 0.00 | 0.00 | 70 | 1011.4 |
| 20260505101438 | 60 | 143 | 0.9 | 0.9 | 0.00 | 0.00 | 0.00 | 70 | 1011.4 |
| 20260505100934 | 60 | 38 | 0.9 | 1.7 | 0.00 | 0.00 | 0.00 | 70 | 1011.2 |
| 20260505100431 | 60 | 122 | 0.0 | 0.0 | 0.00 | 0.00 | 0.00 | 69 | 1011.2 |
| 20260505095926 | 61 | 141 | 0.0 | 0.9 | 0.00 | 0.00 | 0.00 | 69 | 1011.0 |
| 20260505095424 | 61 | 205 | 1.7 | 1.7 | 0.00 | 0.00 | 0.00 | 68 | 1011.0 |
| 20260505094920 | 60 | 140 | 0.0 | 0.0 | 0.00 | 0.00 | 0.00 | 69 | 1011.2 |
| 20260505094417 | 61 | 138 | 0.0 | 0.0 | 0.00 | 0.00 | 0.00 | 69 | 1010.9 |
| 20260505093913 | 60 | 99 | 0.0 | 0.0 | 0.00 | 0.00 | 0.00 | 69 | 1011.0 |
| 20260505093410 | 60 | 158 | 1.7 | 1.7 | 0.00 | 0.00 | 0.00 | 70 | 1011.1 |
| 20260505092907 | 59 | 142 | 0.0 | 0.0 | 0.00 | 0.00 | 0.00 | 72 | 1011.0 |
| 20260505092405 | 58 | 150 | 0.0 | 0.0 | 0.00 | 0.00 | 0.00 | 72 | 1011.1 |
| 20260505091902 | 58 | 136 | 0.0 | 0.0 | 0.00 | 0.00 | 0.00 | 73 | 1010.9 |
| 20260505091400 | 57 | 141 | 0.0 | 0.0 | 0.00 | 0.00 | 0.00 | 74 | 1011.0 |
| 20260505090858 | 58 | 135 | 0.0 | 0.0 | 0.00 | 0.00 | 0.00 | 74 | 1011.1 |
| 20260505090356 | 57 | 153 | 0.0 | 0.0 | 0.00 | 0.00 | 0.00 | 75 | 1010.8 |
| 20260505085853 | 56 | 133 | 0.0 | 0.0 | 0.00 | 0.00 | 0.00 | 76 | 1010.9 |
| 20260505085351 | 56 | 116 | 0.0 | 0.0 | 0.00 | 0.00 | 0.00 | 75 | 1010.9 |
| 20260505084848 | 56 | 138 | 0.0 | 0.0 | 0.00 | 0.00 | 0.00 | 75 | 1010.9 |
| 20260505084346 | 57 | 136 | 0.0 | 0.0 | 0.00 | 0.00 | 0.00 | 75 | 1011.0 |
| 20260505083844 | 57 | 142 | 0.0 | 0.0 | 0.00 | 0.00 | 0.00 | 74 | 1011.1 |
| 20260505083341 | 57 | 130 | 0.0 | 0.0 | 0.00 | 0.00 | 0.00 | 74 | 1011.2 |
| 20260505082838 | 58 | 138 | 0.0 | 0.0 | 0.00 | 0.00 | 0.00 | 73 | 1011.0 |
| 20260505082334 | 58 | 135 | 0.0 | 0.0 | 0.00 | 0.00 | 0.00 | 72 | 1011.0 |
| 20260505081830 | 59 | 147 | 0.0 | 0.0 | 0.00 | 0.00 | 0.00 | 72 | 1010.7 |
| 20260505081327 | 59 | 144 | 0.0 | 0.0 | 0.00 | 0.00 | 0.00 | 71 | 1010.9 |
| 20260505080824 | 59 | 116 | 0.0 | 0.0 | 0.00 | 0.00 | 0.00 | 71 | 1011.0 |
| 20260505080320 | 60 | 148 | 0.0 | 0.0 | 0.00 | 0.00 | 0.00 | 70 | 1011.0 |
| 20260505075815 | 60 | 145 | 0.0 | 0.0 | 0.00 | 0.00 | 0.00 | 69 | 1011.0 |
| 20260505075313 | 60 | 156 | 0.0 | 0.9 | 0.00 | 0.00 | 0.00 | 68 | 1011.1 |
| 20260505074810 | 61 | 130 | 0.0 | 0.0 | 0.00 | 0.00 | 0.00 | 67 | 1011.2 |
| 20260505074307 | 61 | 216 | 0.0 | 0.9 | 0.00 | 0.00 | 0.00 | 66 | 1011.0 |
| 20260505073804 | 61 | 171 | 0.0 | 0.9 | 0.00 | 0.00 | 0.00 | 66 | 1011.1 |
| 20260505073302 | 61 | 153 | 1.7 | 1.7 | 0.00 | 0.00 | 0.00 | 66 | 1011.0 |
| 20260505072759 | 61 | 217 | 1.7 | 2.6 | 0.00 | 0.00 | 0.00 | 66 | 1011.1 |
| 20260505072255 | 61 | 115 | 0.0 | 0.9 | 0.00 | 0.00 | 0.00 | 66 | 1011.2 |
| 20260505071751 | 61 | 148 | 0.0 | 0.9 | 0.00 | 0.00 | 0.00 | 66 | 1011.0 |
| 20260505071247 | 62 | 335 | 1.7 | 2.6 | 0.00 | 0.00 | 0.00 | 65 | 1011.0 |
| 20260505070745 | 62 | 151 | 0.9 | 0.9 | 0.00 | 0.00 | 0.00 | 64 | 1010.7 |
| 20260505070241 | 62 | 186 | 1.7 | 3.5 | 0.00 | 0.00 | 0.00 | 64 | 1011.0 |
| 20260505065737 | 62 | 246 | 2.6 | 3.5 | 0.00 | 0.00 | 0.00 | 64 | 1010.8 |
| 20260505065234 | 61 | 109 | 0.9 | 1.7 | 0.00 | 0.00 | 0.00 | 65 | 1010.9 |
| 20260505064731 | 61 | 191 | 1.7 | 1.7 | 0.00 | 0.00 | 0.00 | 65 | 1010.8 |
| 20260505064229 | 61 | 105 | 0.0 | 0.9 | 0.00 | 0.00 | 0.00 | 64 | 1010.8 |
| 20260505063726 | 60 | 145 | 0.0 | 0.0 | 0.00 | 0.00 | 0.00 | 66 | 1010.8 |
| 20260505063222 | 61 | 156 | 1.7 | 1.7 | 0.00 | 0.00 | 0.00 | 64 | 1010.8 |
| 20260505062719 | 61 | 168 | 0.0 | 0.9 | 0.00 | 0.00 | 0.00 | 64 | 1010.9 |
| 20260505062217 | 61 | 219 | 1.7 | 2.6 | 0.00 | 0.00 | 0.00 | 64 | 1010.9 |
| 20260505061713 | 62 | 191 | 0.9 | 0.9 | 0.00 | 0.00 | 0.00 | 64 | 1011.0 |
| 20260505061211 | 62 | 175 | 3.5 | 6.1 | 0.00 | 0.00 | 0.00 | 62 | 1011.2 |
| 20260505060708 | 62 | 234 | 1.7 | 1.7 | 0.00 | 0.00 | 0.00 | 62 | 1011.1 |
| 20260505060205 | 62 | 263 | 1.7 | 2.6 | 0.00 | 0.00 | 0.00 | 62 | 1010.8 |
| 20260505055700 | 62 | 159 | 0.9 | 0.9 | 0.00 | 0.00 | 0.00 | 63 | 1011.2 |
| 20260505055157 | 62 | 151 | 0.0 | 0.9 | 0.00 | 0.00 | 0.00 | 63 | 1010.9 |
| 20260505054654 | 62 | 165 | 3.5 | 3.5 | 0.00 | 0.00 | 0.00 | 62 | 1011.1 |
| 20260505054152 | 62 | 124 | 3.5 | 6.1 | 0.00 | 0.00 | 0.00 | 63 | 1010.8 |
| 20260505053650 | 61 | 116 | 1.7 | 1.7 | 0.00 | 0.00 | 0.00 | 63 | 1011.1 |
| 20260505053146 | 62 | 233 | 1.7 | 2.6 | 0.00 | 0.00 | 0.00 | 62 | 1010.9 |
| 20260505052643 | 62 | 145 | 0.0 | 0.0 | 0.00 | 0.00 | 0.00 | 62 | 1011.2 |
| 20260505052140 | 62 | 152 | 0.0 | 0.9 | 0.00 | 0.00 | 0.00 | 62 | 1011.1 |
| 20260505051637 | 61 | 256 | 1.7 | 2.6 | 0.00 | 0.00 | 0.00 | 62 | 1011.0 |
| 20260505051136 | 61 | 138 | 0.9 | 1.7 | 0.00 | 0.00 | 0.00 | 63 | 1011.1 |
| 20260505050633 | 61 | 166 | 0.0 | 0.0 | 0.00 | 0.00 | 0.00 | 63 | 1011.1 |
| 20260505050131 | 61 | 203 | 2.6 | 2.6 | 0.00 | 0.00 | 0.00 | 62 | 1011.2 |
| 20260505041601 | 61 | 164 | 0.9 | 1.7 | 0.00 | 0.00 | 0.00 | 62 | 1011.0 |
| 20260505041058 | 61 | 141 | 0.0 | 0.9 | 0.00 | 0.00 | 0.00 | 61 | 1011.0 |
| 20260505040555 | 61 | 174 | 1.7 | 2.6 | 0.00 | 0.00 | 0.00 | 61 | 1011.0 |
| 20260505040052 | 61 | 141 | 0.9 | 1.7 | 0.00 | 0.00 | 0.00 | 59 | 1010.9 |
| 20260505035548 | 61 | 194 | 0.9 | 0.9 | 0.00 | 0.00 | 0.00 | 60 | 1011.0 |
| 20260505035045 | 61 | 132 | 0.9 | 0.9 | 0.00 | 0.00 | 0.00 | 59 | 1010.9 |
| 20260505034541 | 62 | 156 | 0.0 | 0.9 | 0.00 | 0.00 | 0.00 | 57 | 1011.0 |
| 20260505034038 | 62 | 138 | 0.0 | 0.0 | 0.00 | 0.00 | 0.00 | 56 | 1011.3 |
| 20260505033535 | 62 | 159 | 0.9 | 0.9 | 0.00 | 0.00 | 0.00 | 55 | 1011.2 |
| 20260505033034 | 62 | 175 | 1.7 | 3.5 | 0.00 | 0.00 | 0.00 | 54 | 1011.2 |
| 20260505032531 | 62 | 116 | 0.0 | 0.0 | 0.00 | 0.00 | 0.00 | 53 | 1011.1 |
| 20260505032027 | 62 | 123 | 0.0 | 0.9 | 0.00 | 0.00 | 0.00 | 53 | 1011.1 |
| 20260505031525 | 62 | 148 | 0.9 | 0.9 | 0.00 | 0.00 | 0.00 | 53 | 1011.0 |
| 20260505031021 | 62 | 92 | 2.6 | 3.5 | 0.00 | 0.00 | 0.00 | 51 | 1011.0 |
| 20260505030518 | 63 | 125 | 0.0 | 0.0 | 0.00 | 0.00 | 0.00 | 51 | 1011.1 |
| 20260505030014 | 63 | 149 | 0.0 | 0.9 | 0.00 | 0.00 | 0.00 | 51 | 1011.2 |
| 20260505025510 | 63 | 110 | 0.9 | 0.9 | 0.00 | 0.00 | 0.00 | 50 | 1011.3 |
| 20260505025010 | 63 | 150 | 0.9 | 1.7 | 0.00 | 0.00 | 0.00 | 51 | 1011.2 |
| 20260505024505 | 63 | 115 | 0.0 | 0.0 | 0.00 | 0.00 | 0.00 | 50 | 1011.5 |
| 20260505024003 | 63 | 158 | 0.9 | 0.9 | 0.00 | 0.00 | 0.00 | 50 | 1011.2 |
| 20260505023459 | 63 | 95 | 0.9 | 1.7 | 0.00 | 0.00 | 0.00 | 51 | 1011.3 |
| 20260505022957 | 63 | 183 | 1.7 | 3.5 | 0.00 | 0.00 | 0.00 | 50 | 1011.3 |
| 20260505022455 | 63 | 98 | 0.0 | 0.0 | 0.00 | 0.00 | 0.00 | 51 | 1011.3 |
| 20260505021952 | 63 | 140 | 0.0 | 0.0 | 0.00 | 0.00 | 0.00 | 50 | 1011.2 |
| 20260505021448 | 64 | 77 | 0.0 | 0.0 | 0.00 | 0.00 | 0.00 | 51 | 1011.4 |
| 20260505020944 | 64 | 134 | 0.0 | 0.0 | 0.00 | 0.00 | 0.00 | 49 | 1011.4 |
| 20260505020439 | 64 | 110 | 0.0 | 0.0 | 0.00 | 0.00 | 0.00 | 49 | 1011.2 |
| 20260505015937 | 64 | 149 | 0.0 | 0.9 | 0.00 | 0.00 | 0.00 | 48 | 1011.2 |
| 20260505015433 | 64 | 110 | 0.0 | 0.9 | 0.00 | 0.00 | 0.00 | 48 | 1011.1 |
| 20260505014931 | 64 | 141 | 0.9 | 0.9 | 0.00 | 0.00 | 0.00 | 49 | 1011.3 |
| 20260505014427 | 65 | 149 | 0.9 | 0.9 | 0.00 | 0.00 | 0.00 | 48 | 1011.2 |
| 20260505013924 | 65 | 126 | 0.0 | 0.0 | 0.00 | 0.00 | 0.00 | 47 | 1011.2 |
| 20260505013421 | 65 | 123 | 0.0 | 0.0 | 0.00 | 0.00 | 0.00 | 47 | 1011.3 |
| 20260505012919 | 65 | 120 | 1.7 | 2.6 | 0.00 | 0.00 | 0.00 | 46 | 1011.2 |
| 20260505012417 | 65 | 122 | 0.0 | 0.9 | 0.00 | 0.00 | 0.00 | 46 | 1011.3 |
| 20260505011913 | 65 | 172 | 0.0 | 0.0 | 0.00 | 0.00 | 0.00 | 47 | 1011.2 |
| 20260505011410 | 64 | 136 | 0.9 | 0.9 | 0.00 | 0.00 | 0.00 | 47 | 1011.1 |
| 20260505010906 | 64 | 149 | 0.0 | 0.0 | 0.00 | 0.00 | 0.00 | 47 | 1011.0 |
| 20260505010402 | 64 | 110 | 0.0 | 0.0 | 0.00 | 0.00 | 0.00 | 48 | 1011.0 |
| 20260505005858 | 63 | 156 | 0.9 | 0.9 | 0.00 | 0.00 | 0.00 | 47 | 1010.9 |
| 20260505005355 | 64 | 137 | 0.0 | 0.0 | 0.00 | 0.00 | 0.00 | 48 | 1010.9 |
| 20260505004853 | 64 | 138 | 0.0 | 0.0 | 0.00 | 0.00 | 0.00 | 48 | 1010.8 |
| 20260505004349 | 64 | 120 | 0.0 | 0.0 | 0.00 | 0.00 | 0.00 | 46 | 1010.7 |
| 20260505003846 | 65 | 142 | 0.0 | 0.0 | 0.00 | 0.00 | 0.00 | 47 | 1010.9 |
| 20260505003344 | 65 | 132 | 0.0 | 0.0 | 0.00 | 0.00 | 0.00 | 45 | 1010.6 |
| 20260505002839 | 66 | 137 | 0.0 | 0.0 | 0.00 | 0.00 | 0.00 | 44 | 1010.5 |
| 20260505002336 | 67 | 141 | 0.0 | 0.0 | 0.00 | 0.00 | 0.00 | 42 | 1010.7 |
| 20260505001835 | 67 | 157 | 0.9 | 0.9 | 0.00 | 0.00 | 0.00 | 42 | 1010.5 |
| 20260505001331 | 67 | 139 | 0.9 | 2.6 | 0.00 | 0.00 | 0.00 | 41 | 1010.6 |
| 20260505000829 | 68 | 136 | 0.0 | 0.0 | 0.00 | 0.00 | 0.00 | 42 | 1010.4 |
| 20260505000326 | 68 | 145 | 0.9 | 1.7 | 0.00 | 0.00 | 0.00 | 40 | 1010.8 |
| 20260504235823 | 68 | 190 | 0.9 | 0.9 | 0.00 | 0.00 | 0.00 | 40 | 1010.6 |
| 20260504235320 | 69 | 176 | 0.9 | 0.9 | 0.00 | 0.00 | 0.00 | 39 | 1010.3 |
| 20260504234817 | 69 | 130 | 1.7 | 1.7 | 0.00 | 0.00 | 0.00 | 40 | 1010.5 |
| 20260504234314 | 69 | 144 | 1.7 | 3.5 | 0.00 | 0.00 | 0.00 | 38 | 1010.5 |
| 20260504233810 | 69 | 268 | 1.7 | 2.6 | 0.00 | 0.00 | 0.00 | 38 | 1010.2 |
| 20260504233306 | 69 | 198 | 2.6 | 2.6 | 0.00 | 0.00 | 0.00 | 38 | 1010.3 |
| 20260504232803 | 70 | 179 | 0.9 | 0.9 | 0.00 | 0.00 | 0.00 | 38 | 1010.3 |
| 20260504232301 | 70 | 126 | 0.9 | 1.7 | 0.00 | 0.00 | 0.00 | 37 | 1010.3 |
| 20260504231757 | 70 | 148 | 0.9 | 1.7 | 0.00 | 0.00 | 0.00 | 37 | 1010.3 |
| 20260504231254 | 71 | 194 | 1.7 | 2.6 | 0.00 | 0.00 | 0.00 | 37 | 1010.1 |
| 20260504230750 | 71 | 242 | 3.5 | 3.5 | 0.00 | 0.00 | 0.00 | 36 | 1010.3 |
| 20260504230248 | 71 | 143 | 0.9 | 1.7 | 0.00 | 0.00 | 0.00 | 36 | 1010.2 |
| 20260504225746 | 71 | 141 | 0.0 | 0.0 | 0.00 | 0.00 | 0.00 | 36 | 1010.1 |
| 20260504225242 | 71 | 149 | 1.7 | 2.6 | 0.00 | 0.00 | 0.00 | 36 | 1010.2 |
| 20260504224740 | 71 | 186 | 2.6 | 3.5 | 0.00 | 0.00 | 0.00 | 36 | 1010.0 |
| 20260504224237 | 71 | 211 | 0.0 | 0.9 | 0.00 | 0.00 | 0.00 | 35 | 1010.2 |
| 20260504223733 | 71 | 329 | 3.5 | 3.5 | 0.00 | 0.00 | 0.00 | 36 | 1010.4 |
| 20260504223229 | 71 | 169 | 0.9 | 1.7 | 0.00 | 0.00 | 0.00 | 35 | 1010.2 |
| 20260504222726 | 71 | 257 | 1.7 | 3.5 | 0.00 | 0.00 | 0.00 | 36 | 1010.2 |
| 20260504222223 | 72 | 117 | 3.5 | 6.1 | 0.00 | 0.00 | 0.00 | 35 | 1010.2 |
| 20260504221720 | 72 | 23 | 2.6 | 3.5 | 0.00 | 0.00 | 0.00 | 36 | 1010.2 |
| 20260504221217 | 72 | 162 | 3.5 | 3.5 | 0.00 | 0.00 | 0.00 | 34 | 1010.3 |
| 20260504220714 | 72 | 227 | 1.7 | 1.7 | 0.00 | 0.00 | 0.00 | 35 | 1010.1 |
| 20260504220212 | 72 | 168 | 1.7 | 2.6 | 0.00 | 0.00 | 0.00 | 36 | 1010.5 |
| 20260504215708 | 72 | 173 | 4.3 | 6.1 | 0.00 | 0.00 | 0.00 | 35 | 1010.5 |
| 20260504215205 | 72 | 223 | 2.6 | 2.6 | 0.00 | 0.00 | 0.00 | 35 | 1010.4 |
| 20260504214700 | 73 | 178 | 3.5 | 5.2 | 0.00 | 0.00 | 0.00 | 35 | 1010.4 |
| 20260504214157 | 72 | 21 | 1.7 | 2.6 | 0.00 | 0.00 | 0.00 | 35 | 1010.4 |
| 20260504213654 | 72 | 222 | 2.6 | 3.5 | 0.00 | 0.00 | 0.00 | 37 | 1010.4 |
| 20260504213151 | 72 | 354 | 1.7 | 2.6 | 0.00 | 0.00 | 0.00 | 35 | 1010.7 |
| 20260504212647 | 73 | 123 | 0.0 | 0.9 | 0.00 | 0.00 | 0.00 | 35 | 1010.6 |
| 20260504212144 | 73 | 203 | 0.9 | 1.7 | 0.00 | 0.00 | 0.00 | 36 | 1010.4 |
| 20260504211642 | 72 | 157 | 0.9 | 0.9 | 0.00 | 0.00 | 0.00 | 34 | 1010.5 |
| 20260504211137 | 73 | 17 | 0.9 | 0.9 | 0.00 | 0.00 | 0.00 | 36 | 1010.2 |
| 20260504210636 | 72 | 227 | 3.5 | 3.5 | 0.00 | 0.00 | 0.00 | 34 | 1010.4 |
| 20260504210132 | 72 | 181 | 0.9 | 0.9 | 0.00 | 0.00 | 0.00 | 37 | 1010.4 |
| 20260504205629 | 73 | 64 | 6.1 | 7.8 | 0.00 | 0.00 | 0.00 | 33 | 1010.4 |
| 20260504205126 | 74 | 155 | 2.6 | 3.5 | 0.00 | 0.00 | 0.00 | 34 | 1010.4 |
| 20260504204625 | 74 | 256 | 1.7 | 2.6 | 0.00 | 0.00 | 0.00 | 35 | 1010.6 |
| 20260504204124 | 75 | 165 | 5.2 | 8.7 | 0.00 | 0.00 | 0.00 | 32 | 1010.5 |
| 20260504203622 | 75 | 108 | 1.7 | 1.7 | 0.00 | 0.00 | 0.00 | 34 | 1010.4 |
| 20260504203120 | 73 | 44 | 3.5 | 6.1 | 0.00 | 0.00 | 0.00 | 33 | 1010.3 |
| 20260504202620 | 73 | 186 | 4.3 | 6.1 | 0.00 | 0.00 | 0.00 | 34 | 1010.5 |
| 20260504202117 | 74 | 141 | 0.9 | 1.7 | 0.00 | 0.00 | 0.00 | 35 | 1010.4 |
| 20260504201614 | 74 | 151 | 1.7 | 2.6 | 0.00 | 0.00 | 0.00 | 32 | 1010.5 |
| 20260504201112 | 73 | 205 | 1.7 | 2.6 | 0.00 | 0.00 | 0.00 | 34 | 1010.5 |
| 20260504200608 | 74 | 91 | 1.7 | 1.7 | 0.00 | 0.00 | 0.00 | 33 | 1010.5 |
| 20260504200104 | 74 | 117 | 1.7 | 1.7 | 0.00 | 0.00 | 0.00 | 33 | 1010.6 |
| 20260504195601 | 73 | 189 | 2.6 | 3.5 | 0.00 | 0.00 | 0.00 | 33 | 1010.6 |
| 20260504195057 | 73 | 150 | 1.7 | 2.6 | 0.00 | 0.00 | 0.00 | 34 | 1010.5 |
| 20260504194554 | 74 | 148 | 3.5 | 5.2 | 0.00 | 0.00 | 0.00 | 31 | 1010.5 |
| 20260504194049 | 75 | 143 | 3.5 | 7.0 | 0.00 | 0.00 | 0.00 | 33 | 1010.5 |
| 20260504193546 | 75 | 233 | 1.7 | 2.6 | 0.00 | 0.00 | 0.00 | 35 | 1010.4 |
| 20260504193045 | 73 | 116 | 1.7 | 1.7 | 0.00 | 0.00 | 0.00 | 33 | 1010.5 |
| 20260504192543 | 74 | 136 | 0.0 | 0.9 | 0.00 | 0.00 | 0.00 | 33 | 1010.7 |
| 20260504192041 | 74 | 125 | 0.0 | 0.9 | 0.00 | 0.00 | 0.00 | 33 | 1010.5 |
| 20260504191538 | 75 | 175 | 1.7 | 1.7 | 0.00 | 0.00 | 0.00 | 32 | 1010.9 |
| 20260504191034 | 74 | 281 | 3.5 | 3.5 | 0.00 | 0.00 | 0.00 | 33 | 1010.9 |
| 20260504190531 | 73 | 156 | 1.7 | 3.5 | 0.00 | 0.00 | 0.00 | 33 | 1011.1 |
| 20260504190027 | 73 | 26 | 0.9 | 0.9 | 0.00 | 0.00 | 0.00 | 32 | 1011.1 |
| 20260504185524 | 73 | 117 | 1.7 | 2.6 | 0.00 | 0.00 | 0.00 | 32 | 1011.2 |
| 20260504185020 | 73 | 328 | 3.5 | 6.1 | 0.00 | 0.00 | 0.00 | 33 | 1011.2 |
| 20260504184515 | 73 | 122 | 0.0 | 0.9 | 0.00 | 0.00 | 0.00 | 34 | 1011.2 |
| 20260504184011 | 72 | 162 | 1.7 | 2.6 | 0.00 | 0.00 | 0.00 | 37 | 1011.3 |
| 20260504183509 | 74 | 359 | 3.5 | 6.1 | 0.00 | 0.00 | 0.00 | 34 | 1011.4 |
| 20260504183007 | 72 | 16 | 5.2 | 7.0 | 0.00 | 0.00 | 0.00 | 34 | 1011.4 |
| 20260504182503 | 72 | 350 | 6.1 | 7.0 | 0.00 | 0.00 | 0.00 | 35 | 1011.5 |
| 20260504182001 | 73 | 250 | 1.7 | 1.7 | 0.00 | 0.00 | 0.00 | 34 | 1011.6 |
| 20260504181457 | 72 | 186 | 2.6 | 5.2 | 0.00 | 0.00 | 0.00 | 38 | 1011.4 |
| 20260504180956 | 71 | 7 | 3.5 | 3.5 | 0.00 | 0.00 | 0.00 | 34 | 1011.6 |
| 20260504180455 | 71 | 321 | 4.3 | 5.2 | 0.00 | 0.00 | 0.00 | 35 | 1011.6 |
| 20260504175953 | 73 | 33 | 1.7 | 3.5 | 0.00 | 0.00 | 0.00 | 34 | 1011.6 |
| 20260504175450 | 71 | 320 | 1.7 | 2.6 | 0.00 | 0.00 | 0.00 | 35 | 1011.8 |
| 20260504174947 | 72 | 21 | 5.2 | 7.0 | 0.00 | 0.00 | 0.00 | 33 | 1011.9 |
| 20260504174444 | 71 | 216 | 2.6 | 3.5 | 0.00 | 0.00 | 0.00 | 35 | 1011.9 |
| 20260504173942 | 70 | 125 | 0.9 | 0.9 | 0.00 | 0.00 | 0.00 | 36 | 1012.0 |
| 20260504173437 | 71 | 176 | 4.3 | 6.1 | 0.00 | 0.00 | 0.00 | 35 | 1012.2 |
| 20260504172936 | 71 | 153 | 1.7 | 1.7 | 0.00 | 0.00 | 0.00 | 37 | 1012.0 |
| 20260504172431 | 71 | 49 | 1.7 | 2.6 | 0.00 | 0.00 | 0.00 | 35 | 1012.1 |
| 20260504171928 | 69 | 234 | 2.6 | 3.5 | 0.00 | 0.00 | 0.00 | 36 | 1012.3 |
| 20260504171425 | 70 | 1 | 3.5 | 3.5 | 0.00 | 0.00 | 0.00 | 36 | 1012.3 |
| 20260504170922 | 71 | 131 | 2.6 | 5.2 | 0.00 | 0.00 | 0.00 | 36 | 1012.5 |
| 20260504170418 | 69 | 126 | 0.9 | 1.7 | 0.00 | 0.00 | 0.00 | 36 | 1012.5 |
| 20260504160337 | 69 | 166 | 1.7 | 2.6 | 0.00 | 0.00 | 0.00 | 35 | 1013.4 |